Tracking 19800 objects as of 24-Jul-2019
HD Live streaming from Space Station
objects crossing your sky now

METEOR 2-17 DEB

Track METEOR 2-17 DEB now!
10-day predictions


NORAD ID: 35365
Int'l Code: 1988-005Z
Perigee: 928.2 km
Apogee: 929.6 km
Inclination: 82.5 °
Period: 103.5 minutes
Semi major axis: 7299 km
RCS: 0.0068 m2 (small)
Launch date: January 30, 1988
Source: Commonwealth of Independent States (former USSR) (CIS)
Launch site: PLESETSK MISSILE AND SPACE COMPLEX (PKMTR)

Note: This is SATELLITE DEBRIS
aabbcc
Your satellite tracking list
Your tracking list is empty




NASA's NSSDC Master Catalog

Two Line Element Set (TLE):
1 35365U 88005Z   19203.30913642  .00000683  00000-0  52362-3 0  9994
2 35365  82.5223 146.0764 0000996 325.9039 188.7792 13.91964578580849
Source of the keplerian elements: AFSPC